North Conway, NH

12:55 AM EDT on October 23, 2019 (GMT -0400)
North Conway

Weather History for KCWN - September, 2019

Change the Weather History Date:

Tuesday, September 17, 2019

  Actual Average (KIZG) Record (KIZG)
Temperature  
Mean Temperature 70 °F -  
Max Temperature 77 °F 70 °F 87 °F (2018)
Min Temperature 64 °F 44 °F 30 °F (2011)
Cooling Degree Days 6    
Growing Degree Days 20 (Base 50)    
Moisture  
Dew Point 36 °F    
Average Humidity 28    
Maximum Humidity 39    
Minimum Humidity 19    
Precipitation  
Precipitation 0.00 in - - ()
Sea Level Pressure  
Sea Level Pressure 29.48 in    
Wind  
Wind Speed 9 mph (WSW)    
Max Wind Speed 21 mph    
Max Gust Speed 29 mph    
Visibility 10 miles    
Events      
Averages and records for this station are not official NWS values.
T = Trace of Precipitation, MM = Missing Value Source: NWS Daily Summary

Daily Weather History Graph

Daily Weather History Graph

Search for Another Location

Airport or City:

Astronomy

Sep. 17, 2019 Rise Set
Actual Time 6:25 AM EDT 6:51 PM EDT
Civil Twilight 5:56 AM EDT 7:20 PM EDT
Nautical Twilight 5:22 AM EDT 7:54 PM EDT
Astronomical Twilight 4:47 AM EDT 8:29 PM EDT
Moon 8:47 PM EDT (9/17) 9:32 AM EDT (9/17)
Length of Visible Light 13h 23m
Length of Day
12h 26m
Waning Gibbous, 89% of the Moon is Illuminated
Sep 17
Waning Gibbous
Sep 21
Last Quarter
Sep 28
New
Oct 5
First Quarter
Oct 13
Full

Hourly Weather History & Observations

Time (EDT) Temp. Dew Point Humidity Pressure Visibility Wind Dir Wind Speed Gust Speed Precip Events Conditions
12:58 AM 68.2 °F 41.5 °F 38% 29.48 in 10.0 mi West 3.5 mph - N/A   Mostly Cloudy
1:58 AM 67.1 °F 41.0 °F 39% 29.46 in 10.0 mi South 8.1 mph - N/A   Mostly Cloudy
2:58 AM 65.5 °F 34.2 °F 31% 29.47 in 10.0 mi NW 11.5 mph - N/A   Partly Cloudy
3:58 AM 69.4 °F 32.9 °F 26% 29.45 in 10.0 mi WNW 20.7 mph 24.2 mph N/A   Mostly Cloudy
4:58 AM 69.4 °F 33.6 °F 27% 29.45 in 10.0 mi West 12.7 mph 20.7 mph N/A   Scattered Clouds
5:32 AM 69.8 °F 35.6 °F 28% 29.45 in 10.0 mi West 12.7 mph 20.7 mph N/A   Mostly Cloudy
5:58 AM 68.7 °F 34.9 °F 29% 29.46 in 10.0 mi WNW 11.5 mph 19.6 mph N/A   Mostly Cloudy
6:58 AM 64.8 °F 36.7 °F 35% 29.49 in 10.0 mi WNW 5.8 mph - N/A   Scattered Clouds
7:58 AM 66.7 °F 36.5 °F 33% 29.48 in 10.0 mi NNW 9.2 mph 24.2 mph N/A   Partly Cloudy
8:58 AM 66.6 °F 34.2 °F 30% 29.50 in 10.0 mi WSW 3.5 mph - N/A   Mostly Cloudy
9:58 AM 65.5 °F 35.8 °F 33% 29.52 in 10.0 mi Calm Calm - N/A   Mostly Cloudy
10:58 AM 66.9 °F 35.2 °F 31% 29.53 in 10.0 mi Calm Calm - N/A   Mostly Cloudy
11:58 AM 68.4 °F 38.7 °F 34% 29.53 in 10.0 mi Calm Calm - N/A   Mostly Cloudy
12:58 PM 70.5 °F 39.2 °F 32% 29.53 in 10.0 mi NE 3.5 mph - N/A   Mostly Cloudy
1:58 PM 75.2 °F 36.7 °F 25% 29.49 in 10.0 mi ENE 5.8 mph - N/A   Clear
2:58 PM 75.6 °F 35.8 °F 24% 29.47 in 6.0 mi North 4.6 mph - N/A   Haze
3:58 PM 77.9 °F 34.5 °F 21% 29.45 in 4.0 mi SE 9.2 mph - N/A   Haze
4:08 PM 77.0 °F 32.0 °F 19% 29.44 in 10.0 mi NW 19.6 mph 28.8 mph N/A   Partly Cloudy
4:09 PM 77.0 °F 33.8 °F 21% 29.43 in 10.0 mi WSW 17.3 mph 28.8 mph N/A   Partly Cloudy
4:10 PM 77.0 °F 33.8 °F 21% 29.43 in 10.0 mi SE 18.4 mph 28.8 mph N/A   Partly Cloudy
4:58 PM 74.5 °F 36.3 °F 25% 29.46 in 10.0 mi SE 11.5 mph 19.6 mph N/A   Partly Cloudy
5:28 PM 73.4 °F 35.6 °F 25% 29.45 in 10.0 mi SSE 18.4 mph 21.9 mph N/A   Mostly Cloudy
5:58 PM 73.6 °F 37.0 °F 26% 29.45 in 10.0 mi SSE 15.0 mph 19.6 mph N/A   Mostly Cloudy
6:58 PM 73.4 °F 34.3 °F 24% 29.45 in 10.0 mi SE 11.5 mph 19.6 mph N/A   Clear
7:58 PM 72.1 °F 36.0 °F 27% 29.46 in 10.0 mi SSE 6.9 mph - N/A   Clear
8:58 PM 70.2 °F 37.2 °F 30% 29.49 in 10.0 mi SW 3.5 mph - N/A   Clear
9:58 PM 68.7 °F 37.4 °F 32% 29.52 in 10.0 mi West 3.5 mph - N/A   Clear
10:58 PM 70.0 °F 36.5 °F 29% 29.52 in 10.0 mi WSW 6.9 mph - N/A   Clear
11:58 PM 68.5 °F 33.8 °F 28% 29.53 in 10.0 mi WNW 9.2 mph - N/A   Clear